User: anonymous   Login
Location: Caltech
(34.1382°N, 118.1253°W)
Time: 06:32:21
(UTC-08:00)
Language:

Meteor 1-11 Rocket - Orbit

View from above orbital plane
View from above orbital plane
View from above satellite
View from above satellite

Ground track
Ground track

The orbit data is extracted from the following two-line orbital elements,

1 05918U 72022B   14327.09736868 -.00000046  00000-0 -35422-4 0  3042
2 05918 081.2353 152.3503 0059729 080.5606 056.9345 14.05735914186335
Epoch (UTC): 23 November 2014 02:20:12
Eccentricity: 0.0059729
inclination: 81.2353°
perigee height: 830 km
apogee height: 917 km
right ascension of ascending node: 152.3503°
argument of perigee: 80.5606°
revolutions per day: 14.05735914
mean anomaly at epoch: 56.9345°
orbit number at epoch: 18633

The dashed part of the orbit path shows where the satellite is in the earth's shadow,  

DLR